Theta_e
328 329 329 329 329 331 331 331 332 332 332 332 332 332 333 333 333 333 333 332 332 332 331 331 331 330 329 329 330 329 325 317 316 316 315 319 327 335 335 333 335 332 327 316 312 310 306 307 306 310 305 303 305 305 307 306 304 302 295 290 290 291 292 295 293 294 293 295 295 295 296 297 296 298 300 302 303 304 305 309 309 319 318 319 320 324 326 327
327 328 329 329 329 330 331 331 331 332 332 332 332 332 332 333 333 333 332 332 331 331 331 331 331 330 330 329 329 328 322 317 314 316 316 329 334 335 335 334 334 331 325 315 310 308 309 307 308 308 302 298 310 304 307 303 303 295 292 292 291 292 294 297 295 295 297 296 298 297 295 299 298 297 298 297 298 301 301 304 311 314 317 320 322 324 325 326
326 327 328 328 329 329 329 330 330 331 331 331 331 331 332 331 332 332 332 331 331 330 330 331 330 329 329 329 328 328 321 317 315 312 319 334 333 335 333 335 334 331 318 316 313 312 310 310 309 305 300 297 299 303 305 302 303 297 293 290 291 296 296 294 294 296 297 298 297 297 296 297 298 297 298 296 295 297 300 306 306 310 311 316 319 323 324 325
325 325 327 327 329 329 329 329 329 330 331 330 330 331 331 330 331 332 332 331 330 330 330 330 329 329 329 328 328 323 319 314 310 315 321 336 335 337 335 335 335 330 326 322 318 314 310 311 308 305 300 300 297 304 301 302 300 299 295 291 293 296 294 296 296 295 294 298 299 297 295 297 297 296 297 294 295 294 295 307 310 312 315 317 320 322 323 324
325 325 326 327 328 329 329 329 329 329 331 330 330 330 330 330 330 331 332 331 330 329 330 329 329 329 328 328 327 323 314 307 309 319 324 336 337 338 334 336 334 327 325 319 316 312 308 305 304 303 301 295 299 298 297 299 301 299 295 296 296 294 295 295 295 294 296 296 298 294 296 296 297 298 295 297 295 293 296 300 306 318 319 319 320 321 322 323
324 324 324 326 327 328 329 329 329 329 330 330 330 330 329 329 330 330 331 331 330 329 329 329 329 327 328 328 325 320 312 294 315 318 331 335 336 336 335 335 334 326 322 317 316 311 308 303 302 297 302 295 297 295 296 298 303 296 296 296 295 294 295 296 296 294 295 296 295 295 296 296 297 296 294 298 296 295 296 301 303 321 321 322 323 322 321 321
323 323 324 325 326 328 328 328 328 329 330 330 330 329 329 329 329 330 330 331 330 329 329 329 328 328 327 326 322 318 311 311 316 318 333 335 336 334 334 335 332 323 320 316 315 311 306 302 300 300 296 298 295 299 298 297 301 299 295 295 296 295 295 295 295 293 295 296 296 296 296 297 294 295 294 294 294 294 294 294 305 321 322 322 320 321 321 321
323 323 323 323 324 326 328 328 328 328 329 329 329 329 329 329 329 330 330 330 330 329 329 328 328 327 327 322 317 312 310 309 318 323 330 335 334 332 332 327 325 322 319 316 312 309 304 302 298 298 297 294 296 297 297 296 299 297 296 296 296 295 295 294 293 292 295 295 293 296 296 296 295 295 293 294 296 296 297 298 311 321 321 321 321 320 320 320
322 322 322 321 323 325 326 327 327 328 328 328 329 329 329 329 329 329 330 330 330 329 328 328 327 327 327 321 315 309 308 319 323 325 331 331 330 329 327 322 324 319 318 318 314 311 305 304 302 303 295 295 299 296 295 294 292 297 298 295 295 295 295 294 295 294 295 295 294 295 295 295 294 296 294 296 296 297 303 299 316 320 319 319 320 320 320 320
322 322 322 321 322 324 325 326 326 328 328 329 329 329 329 329 328 329 329 330 330 329 328 328 327 327 323 317 313 305 314 326 330 329 329 329 327 326 324 324 321 317 316 317 315 307 302 302 302 303 301 301 297 297 295 295 293 297 296 295 295 295 296 296 296 295 294 295 294 294 293 295 294 295 293 296 296 299 304 306 317 319 319 319 320 320 320 320
322 322 322 321 322 323 325 326 326 327 328 328 329 329 329 328 328 329 329 329 329 329 328 327 327 325 318 317 309 304 314 324 328 327 329 328 326 323 321 323 322 317 317 316 313 309 305 305 306 304 301 297 299 297 294 296 296 297 295 294 294 293 296 295 294 294 294 296 291 294 293 293 294 296 291 295 295 304 304 307 314 317 318 318 319 319 319 320
322 322 322 322 322 323 325 326 326 327 327 328 328 328 328 328 328 328 329 329 329 329 329 328 327 323 318 314 309 309 310 326 327 328 328 327 324 324 324 324 323 319 318 313 312 311 306 306 306 303 298 302 299 295 295 295 295 295 295 293 293 292 295 295 295 295 296 295 293 292 293 292 293 292 296 293 296 302 306 306 310 313 316 317 318 318 318 319
321 322 322 322 322 323 324 325 326 326 327 327 327 327 327 327 328 328 328 328 329 329 328 328 326 322 316 307 312 313 312 327 322 325 326 327 324 325 324 324 323 321 319 315 311 312 307 306 305 301 301 300 297 294 295 297 295 295 295 291 292 292 289 293 294 294 295 294 293 294 285 287 292 296 296 294 297 298 303 305 306 308 310 313 315 316 317 318
320 321 321 322 322 322 323 325 326 326 327 327 327 327 327 327 328 328 328 328 329 329 328 328 324 316 314 309 309 312 318 321 321 323 322 321 322 318 320 322 320 318 316 311 312 309 307 307 305 302 306 299 296 300 297 294 296 294 292 293 288 287 286 292 293 293 294 295 294 294 288 287 290 294 294 295 297 299 301 303 304 305 307 310 312 314 315 316
319 320 321 321 321 322 322 323 325 326 327 327 326 326 326 326 327 328 328 328 328 328 327 327 319 314 307 309 309 309 326 320 316 317 319 319 315 312 315 317 315 315 311 306 307 308 307 306 304 300 298 300 301 296 291 291 290 290 289 285 286 286 286 290 292 293 293 294 294 294 287 289 291 292 289 291 296 297 298 300 302 302 304 306 309 311 312 314
319 320 320 321 321 321 322 323 324 325 326 326 325 325 324 326 326 327 328 327 328 327 326 318 315 313 307 304 309 325 318 313 313 315 314 320 316 315 314 312 310 307 307 306 306 307 306 306 300 299 298 299 295 292 290 288 290 290 288 282 285 286 286 289 294 291 292 293 294 292 288 288 290 290 291 293 295 295 296 296 297 298 300 301 304 307 309 309
319 320 320 320 321 321 321 322 323 324 325 324 324 324 324 325 326 326 326 326 325 325 322 313 314 313 302 307 311 309 308 311 311 310 308 310 315 312 309 307 305 304 305 305 304 305 302 301 300 299 299 294 291 293 288 285 283 285 285 284 285 287 286 286 289 292 292 291 291 292 290 288 290 290 290 293 293 293 294 295 294 295 297 298 299 301 305 306
319 320 320 320 321 321 321 322 323 324 324 323 323 323 323 325 326 324 324 322 321 318 315 318 314 309 305 303 299 302 307 305 310 310 308 306 306 310 310 307 301 302 302 300 302 301 300 296 297 294 293 293 292 289 286 283 285 283 284 284 285 285 287 288 288 290 292 292 290 290 289 291 293 292 290 292 293 292 293 294 294 293 294 295 296 297 300 304
319 319 320 320 321 321 321 322 323 323 324 324 324 325 325 325 324 321 315 313 309 303 302 302 304 296 294 303 302 304 308 307 308 308 303 304 305 307 303 303 303 299 296 294 294 299 297 295 296 291 290 291 290 290 288 288 289 288 287 287 285 286 286 287 290 290 293 290 289 288 290 292 293 293 292 291 292 291 293 291 291 292 292 294 295 296 297 301
319 320 320 320 321 321 321 322 323 323 324 322 321 320 317 308 307 305 310 310 306 305 305 306 309 303 301 303 302 304 308 311 305 304 304 305 304 301 300 301 299 299 295 291 292 294 297 290 288 288 290 292 292 291 291 292 291 290 291 289 288 288 287 289 290 291 292 290 289 289 291 291 291 291 293 290 289 291 292 292 293 293 292 292 293 295 296 298
318 319 320 320 321 321 322 322 323 322 322 321 318 313 303 303 299 295 303 306 309 307 303 307 309 304 299 301 304 305 302 300 306 303 305 306 304 302 296 298 295 292 292 293 293 295 295 289 288 290 291 292 292 291 291 292 290 290 289 288 287 288 287 289 291 292 290 290 288 287 288 289 290 292 292 290 290 291 293 293 293 294 293 293 292 293 295 297
318 319 319 320 320 321 322 322 321 322 322 319 315 309 310 310 312 314 309 298 304 304 303 305 310 307 302 303 306 308 305 299 300 302 306 305 300 298 293 295 293 290 290 291 291 289 289 288 290 290 292 292 291 291 291 291 290 290 288 287 285 286 287 288 290 290 291 291 286 285 287 290 292 292 290 289 291 293 294 295 296 294 294 294 294 293 294 294
318 319 319 320 320 321 322 322 321 321 318 314 310 310 309 312 316 317 311 304 300 305 302 304 304 305 300 303 304 306 300 297 296 300 302 303 298 296 295 292 291 291 290 291 289 287 284 288 290 293 292 292 291 290 290 289 290 288 287 285 284 286 287 285 287 289 290 287 286 285 286 288 289 289 290 292 293 294 294 294 294 294 294 294 295 295 295 294
318 318 319 319 320 321 322 322 322 318 314 313 312 310 313 313 315 312 305 296 295 301 303 303 307 305 300 300 303 304 300 299 299 297 304 301 296 296 295 293 290 290 289 290 290 288 286 288 292 292 291 292 290 290 289 287 286 288 289 286 286 287 288 287 287 289 288 290 287 285 283 285 286 288 290 292 292 293 293 292 292 293 294 295 295 294 295 296
318 318 319 319 320 321 321 321 314 313 315 313 310 312 312 313 313 310 303 297 294 296 304 302 302 303 302 306 304 301 300 299 300 303 304 302 297 294 293 294 291 288 290 290 289 287 287 290 293 290 290 291 290 289 288 288 284 286 289 290 288 289 288 288 289 288 285 286 285 287 280 277 280 284 287 290 287 289 292 292 293 293 294 293 293 295 295 295
317 318 319 319 320 320 321 312 310 314 312 308 309 312 313 313 312 309 302 289 285 292 299 292 304 298 306 299 303 299 302 296 301 304 305 303 304 297 294 291 292 288 289 289 288 287 289 289 291 290 289 289 289 288 289 289 286 284 286 291 290 289 289 288 287 286 281 280 285 285 281 274 280 284 285 285 285 288 289 289 293 294 294 293 294 295 295 295
318 318 319 319 319 320 312 305 314 313 307 306 311 313 312 312 310 305 298 282 283 292 290 299 300 297 304 300 301 300 289 291 301 304 303 305 301 303 293 291 290 291 291 290 286 285 288 288 289 290 289 288 287 287 288 290 286 283 288 290 291 290 288 288 289 285 281 283 287 281 279 277 279 285 286 285 285 287 288 290 290 292 293 294 294 295 295 295
318 318 319 319 319 319 313 313 311 308 308 310 313 313 313 310 305 304 294 277 276 296 289 294 300 306 302 300 300 296 292 300 293 298 303 302 301 298 294 291 290 289 291 290 283 288 289 287 288 288 287 287 287 289 291 291 287 285 290 292 291 292 290 289 288 283 284 284 280 280 285 281 277 282 286 285 287 286 288 290 291 291 292 293 294 295 295 295
318 318 318 318 318 317 315 312 311 308 312 312 311 312 311 309 305 298 286 277 289 290 305 293 306 302 299 301 296 295 296 299 292 297 300 302 302 294 289 290 290 291 290 289 287 287 288 290 291 291 289 287 288 290 292 292 288 291 292 293 292 291 289 288 283 285 285 280 277 280 282 277 277 280 283 281 285 285 288 290 292 291 291 291 293 293 293 293
318 318 318 319 317 316 313 314 311 312 312 312 311 310 310 307 297 287 280 273 291 282 295 295 296 293 297 294 293 296 295 294 295 298 301 297 298 297 293 293 292 291 289 289 287 287 290 292 294 290 289 291 290 290 291 292 292 295 294 291 289 286 284 282 282 282 282 277 278 279 281 281 277 280 284 285 285 288 289 288 289 288 289 292 291 292 293 294
318 318 318 318 312 313 312 307 309 312 311 310 310 309 305 299 288 282 275 284 293 291 295 293 291 298 293 291 288 293 294 293 294 297 294 297 294 294 293 292 292 288 283 286 287 286 288 291 291 289 290 289 291 291 292 292 293 294 287 287 289 286 283 281 279 280 277 273 276 278 280 280 275 275 280 286 286 285 287 288 289 290 290 293 294 293 293 294
317 318 318 316 314 315 308 304 310 312 310 310 309 303 298 283 287 280 277 295 283 287 288 289 294 294 293 294 291 291 290 292 295 295 292 293 291 290 291 287 290 283 283 284 284 284 285 286 287 289 291 291 289 289 289 291 289 288 287 288 285 278 277 277 276 275 274 273 279 279 281 281 280 283 285 286 287 289 287 289 290 289 290 294 294 294 294 294
317 317 317 316 314 312 312 312 312 311 311 309 304 300 291 283 275 285 283 287 282 292 288 295 292 293 293 291 289 292 293 288 293 294 294 292 291 289 290 289 292 286 281 284 282 283 282 281 286 287 290 291 291 288 284 286 286 286 287 284 282 273 272 272 268 268 269 276 278 280 281 280 280 284 291 292 294 293 290 288 288 289 292 295 295 294 293 293
317 317 315 313 312 312 312 313 312 312 309 306 300 294 288 281 279 291 285 287 287 292 293 292 293 293 293 288 289 292 287 291 292 291 293 289 290 287 289 289 290 287 284 282 283 283 279 279 286 287 285 290 290 289 290 287 285 287 285 288 283 279 273 270 269 273 274 276 277 281 279 276 279 284 283 289 293 291 288 288 287 287 290 291 292 292 292 292
316 315 314 312 311 312 312 312 312 312 308 303 294 288 280 280 286 283 283 286 288 291 290 294 291 289 288 290 291 293 291 287 292 291 289 289 287 288 287 289 290 291 287 285 283 282 284 282 284 287 288 288 290 290 291 291 289 286 286 287 283 283 282 278 276 277 274 276 276 278 278 280 284 284 288 290 289 289 289 288 289 290 289 290 292 293 294 293
314 311 312 308 308 310 312 312 312 311 305 298 289 283 281 286 282 288 286 292 291 288 289 291 291 287 287 287 290 291 293 289 290 290 288 289 290 288 290 289 290 292 289 286 285 282 282 282 286 286 288 288 288 289 291 292 284 286 285 281 283 286 284 278 277 279 276 274 274 275 278 280 282 288 293 291 289 289 288 289 289 290 289 289 291 292 292 293
309 309 304 306 308 311 312 313 312 308 303 294 287 282 288 289 289 290 293 290 290 292 289 284 285 286 284 284 287 290 290 292 289 288 285 289 286 289 289 289 292 290 293 290 283 282 283 280 285 285 286 288 288 287 290 288 288 286 281 284 287 289 286 282 276 272 271 273 272 275 277 277 277 280 286 285 287 289 287 289 290 289 288 289 291 291 292 292
305 306 305 305 308 312 313 312 310 306 300 291 285 288 291 288 292 291 292 292 292 292 289 287 287 290 285 285 285 289 291 288 287 288 285 288 284 294 290 290 292 293 293 291 290 284 288 280 283 285 285 287 287 290 290 289 290 288 285 290 287 281 280 279 277 271 271 269 266 273 275 276 277 282 283 284 286 290 290 289 288 289 289 290 291 291 291 291
305 303 297 304 311 312 311 311 308 301 295 287 286 286 288 290 293 292 294 293 293 291 288 289 287 289 289 286 287 290 290 286 288 286 284 286 283 289 292 292 289 291 292 291 288 284 286 281 280 284 285 287 286 286 284 285 289 288 289 287 286 283 280 279 279 276 277 271 268 271 274 278 281 282 283 287 286 288 289 287 289 291 291 290 291 291 292 294
302 297 295 307 311 312 311 309 302 298 292 285 287 287 293 289 290 293 294 294 291 291 288 289 290 287 288 287 289 287 289 289 287 286 286 285 286 289 291 294 290 291 292 291 288 290 284 283 278 283 286 286 285 284 284 287 285 284 284 283 285 283 283 282 280 277 278 268 268 265 270 274 279 283 286 290 291 290 289 290 291 291 291 289 290 292 293 294
303 296 296 308 310 311 309 303 295 290 288 290 291 288 291 288 290 292 294 296 294 294 291 290 290 287 288 287 286 290 286 285 288 285 284 283 288 282 290 293 292 290 290 290 290 287 283 282 280 281 282 281 281 282 284 285 289 287 287 285 287 283 281 281 279 279 274 276 271 267 275 276 281 284 290 290 292 291 288 289 290 291 290 289 289 291 294 295
297 288 293 308 310 309 302 291 291 294 289 287 287 288 288 296 290 291 293 295 295 290 294 293 292 290 289 288 289 289 289 286 287 286 283 282 287 286 289 293 294 293 292 288 289 287 284 281 282 277 281 283 284 287 285 285 285 285 285 286 287 285 283 279 277 278 277 277 275 271 271 279 285 285 288 290 289 288 287 288 290 290 288 289 291 292 294 295
295 292 303 307 309 305 297 289 291 290 286 288 290 291 294 291 290 292 291 293 291 291 291 292 291 290 290 290 289 289 289 285 287 286 284 284 286 287 290 294 295 294 294 286 289 288 290 282 280 280 283 283 282 283 285 284 286 286 285 284 284 285 283 280 277 278 281 277 277 276 274 276 280 283 284 284 283 283 286 286 288 290 291 292 294 294 294 294
296 295 298 306 309 304 293 285 284 287 289 289 290 291 292 290 291 290 291 292 292 291 291 290 291 293 290 292 291 289 291 284 287 287 285 285 286 291 291 294 296 293 293 290 291 291 284 281 284 275 274 278 280 282 283 284 285 282 282 282 284 284 281 279 278 277 279 278 279 277 277 277 284 283 286 285 286 288 289 288 288 292 291 293 293 293 293 294
297 299 299 301 305 301 290 292 289 288 288 288 289 289 289 289 292 293 293 291 293 292 291 290 292 292 291 293 291 292 292 289 285 289 287 286 289 290 292 294 297 294 295 294 296 294 282 282 283 277 275 273 272 274 278 282 282 281 282 283 285 286 281 282 280 279 276 277 278 276 281 282 284 286 288 287 286 288 286 286 286 287 290 293 292 293 292 293
293 285 293 295 299 298 296 294 292 291 288 288 288 289 290 288 291 293 295 292 291 292 291 291 290 293 290 291 289 288 289 289 289 286 288 287 287 288 290 293 295 295 295 296 294 293 281 284 286 284 283 280 283 283 283 286 284 283 286 285 286 287 286 285 281 278 281 280 279 284 284 282 283 285 286 287 285 287 289 285 287 288 286 288 291 291 291 291
296 289 289 286 294 294 293 294 290 291 288 291 286 288 288 289 290 290 292 291 292 293 290 293 291 290 288 290 288 288 289 288 286 288 288 289 286 288 288 291 292 294 295 294 294 290 283 283 286 285 285 285 283 282 285 289 286 287 286 285 285 286 285 284 282 283 283 280 279 284 283 281 284 285 287 288 286 285 285 285 285 286 287 290 290 290 292 291
289 291 295 295 289 286 287 289 292 290 291 291 287 289 289 288 289 287 288 291 293 294 291 290 292 292 291 290 289 286 286 286 286 286 286 285 286 287 289 289 291 292 293 292 294 292 287 285 285 284 283 283 282 285 287 288 287 286 286 285 284 284 283 284 284 286 283 284 283 283 284 283 284 286 288 288 287 289 287 287 286 287 288 291 291 291 291 292
291 291 292 295 288 290 291 292 292 290 289 290 286 289 288 288 287 290 288 289 292 291 293 286 289 291 291 292 290 286 287 283 283 284 286 285 287 284 283 286 288 287 290 290 288 283 289 280 282 285 283 284 283 283 285 286 284 284 285 285 287 284 285 286 287 287 285 285 287 282 282 283 286 288 288 289 288 288 288 286 286 287 287 291 290 290 291 291
288 291 287 291 290 292 291 292 290 289 287 290 286 288 290 289 288 288 289 291 287 289 291 290 289 291 291 291 291 287 288 290 289 285 285 288 284 284 287 285 285 285 287 288 288 287 288 281 286 282 279 282 282 283 284 284 284 283 283 285 286 287 287 287 287 287 285 285 286 283 283 286 288 290 288 287 286 286 286 287 288 287 288 291 291 291 292 293
288 289 291 291 288 290 292 291 289 288 286 286 286 287 289 289 289 291 288 291 292 289 290 289 290 290 291 291 290 290 292 292 291 292 291 292 288 288 289 283 288 287 287 287 286 286 286 278 281 281 280 277 280 281 281 281 282 282 283 283 284 285 284 286 285 285 284 285 286 285 284 285 287 289 288 287 285 286 287 288 287 287 287 292 292 292 293 293
290 291 292 292 285 292 290 291 289 288 284 288 288 288 289 289 291 292 289 290 290 292 293 292 291 291 288 290 289 291 293 292 294 294 295 296 295 291 291 292 293 290 287 288 286 286 284 282 280 279 280 276 279 282 280 280 280 277 280 284 286 286 287 287 287 286 288 289 285 283 285 287 286 286 287 286 285 286 287 287 287 286 286 292 294 294 294 294
Wind_Speed
19 19 21 22 27 25 24 25 25 24 23 23 22 21 21 20 19 18 19 19 16 19 18 17 15 14 13 13 10 11 8 5 3 2 3 3 6 6 9 12 9 11 10 5 8 10 5 4 10 15 13 4 1 0 0 1 0 1 2 2 2 3 1 3 4 9 3 7 5 4 5 8 5 1 1 4 9 5 3 6 2 5 5 1 1 9 13 11
20 19 20 22 23 26 24 25 26 25 24 23 23 22 21 21 19 19 18 18 17 18 19 18 16 14 13 13 12 8 6 3 2 2 9 2 12 11 12 12 11 13 11 7 6 4 3 5 8 11 8 5 1 0 1 1 1 3 2 2 6 3 5 3 2 4 4 5 10 7 4 6 6 7 2 5 1 5 5 3 3 4 5 7 8 12 14 12
20 19 19 21 21 24 25 23 25 25 24 23 23 22 21 21 20 19 17 16 17 18 18 18 17 15 15 14 11 7 4 1 1 8 9 8 15 14 13 13 10 11 8 8 3 4 1 2 2 5 3 2 2 1 1 1 1 3 4 3 4 5 4 3 3 6 3 4 6 7 5 5 6 4 1 4 6 3 9 6 1 3 4 6 7 11 12 12
19 21 19 19 21 23 24 24 25 25 25 24 23 22 22 20 20 19 17 16 16 17 18 18 17 17 15 15 12 5 4 3 6 2 5 16 15 12 13 13 11 9 10 8 6 4 1 3 1 0 2 1 3 1 0 2 1 1 2 4 3 1 2 1 1 2 4 6 12 7 3 5 4 3 3 7 7 3 4 7 11 10 11 9 11 12 12 13
19 20 20 20 21 23 25 25 26 26 25 25 24 23 22 21 20 20 18 16 16 16 18 18 18 18 17 15 12 7 8 4 4 8 10 19 19 14 16 15 11 7 8 8 7 3 3 4 2 1 0 2 1 3 2 2 2 2 6 4 4 1 1 6 3 4 2 4 5 6 10 7 2 1 4 11 9 8 9 9 6 15 15 15 14 12 12 14
19 20 21 21 23 23 23 27 27 26 26 25 25 23 23 21 20 19 19 17 16 16 16 17 18 18 17 14 9 6 8 8 1 4 7 21 22 21 19 16 9 8 9 7 3 3 5 2 5 4 1 1 2 2 3 2 1 3 3 2 5 2 2 2 4 5 2 4 6 9 5 5 7 2 4 11 8 5 7 8 10 13 17 17 16 15 13 14
20 21 21 22 23 23 23 24 24 25 24 25 25 24 23 22 21 20 19 18 17 16 15 16 17 18 16 12 3 9 10 9 1 3 8 20 19 20 19 15 12 8 8 8 5 3 2 4 2 1 0 2 3 0 7 3 1 3 4 0 0 1 5 4 4 4 1 6 7 1 4 6 5 5 2 5 5 4 3 5 11 11 10 11 12 13 17 17
21 21 21 21 22 22 22 24 27 30 26 25 24 25 23 21 20 20 20 19 18 17 16 18 19 19 18 9 8 3 7 10 17 4 5 14 19 19 17 12 12 9 8 10 9 8 6 5 4 3 2 3 1 2 1 4 1 3 4 2 1 1 1 3 4 3 2 1 1 3 6 6 7 4 5 6 7 5 2 4 9 10 12 12 14 14 13 13
22 22 22 23 21 21 22 23 24 26 30 29 27 24 23 23 21 20 20 20 19 18 18 19 19 18 13 10 9 8 9 14 2 4 9 12 13 13 14 9 10 12 8 7 7 9 8 2 4 4 2 1 6 10 3 2 5 5 8 1 0 0 0 1 3 2 1 1 3 5 1 0 2 4 4 7 6 3 3 8 12 13 13 14 15 16 14 13
23 22 23 24 23 21 22 23 24 25 26 30 27 26 25 23 22 21 20 21 21 20 20 19 17 15 9 7 5 9 7 4 2 6 7 13 14 14 13 12 11 11 8 5 7 8 4 7 7 4 1 1 3 6 5 1 4 2 5 4 3 1 1 1 0 1 2 1 1 6 2 1 2 2 4 3 5 4 6 8 10 15 15 15 12 13 13 15
25 24 24 24 24 22 22 23 24 24 26 25 27 26 24 24 22 21 21 21 21 22 20 19 18 12 7 9 12 12 1 2 3 7 12 13 16 15 14 13 15 12 12 9 8 9 6 9 7 4 1 2 1 4 2 4 4 2 4 2 2 3 0 0 1 2 2 0 1 6 1 1 3 1 5 6 5 6 10 8 11 12 13 13 13 13 12 12
27 26 25 25 25 23 24 24 24 25 27 26 25 25 24 24 24 23 22 21 22 22 21 19 20 8 4 10 11 9 2 3 4 8 12 16 14 17 16 15 14 14 14 12 9 8 6 8 8 3 4 2 1 2 3 4 2 3 4 4 1 2 1 1 3 2 0 1 3 2 2 2 1 5 7 3 5 4 8 9 11 10 10 11 11 10 9 12
28 27 26 26 25 24 24 24 24 25 27 32 29 28 25 24 23 23 22 22 22 22 22 21 14 4 7 9 10 1 2 5 8 8 10 8 5 4 4 5 8 7 9 16 14 11 6 7 6 4 2 1 0 1 2 3 5 1 0 3 1 0 2 5 0 0 1 2 1 0 4 7 9 12 1 1 8 4 5 7 8 8 8 8 9 10 10 8
29 28 27 27 26 25 25 24 22 23 26 26 30 28 27 25 24 24 23 22 24 22 22 22 9 3 6 8 0 2 3 3 7 11 9 8 12 5 5 5 4 4 2 0 3 4 7 5 7 3 1 3 1 3 7 4 1 3 2 0 2 3 4 1 2 2 2 0 1 1 5 7 7 12 5 2 8 11 10 9 9 8 8 8 9 10 11 11
30 29 27 27 26 25 26 27 26 23 26 27 26 27 25 25 24 24 23 21 24 23 23 18 5 6 5 3 4 3 9 4 7 7 10 12 11 5 6 7 9 8 5 3 4 4 3 4 4 4 1 0 1 1 4 1 1 2 2 5 1 4 4 3 0 6 7 1 2 2 3 9 7 8 3 4 7 8 10 9 9 8 8 9 8 10 10 11
31 30 28 27 27 26 26 27 27 25 24 27 26 26 26 25 25 25 25 21 24 24 15 12 5 1 4 5 2 7 5 6 7 6 4 13 15 15 14 8 4 3 3 0 3 5 4 2 5 4 1 1 3 2 2 1 2 2 4 2 3 1 4 2 2 3 4 2 0 3 5 3 4 5 4 1 8 9 10 8 8 9 9 9 9 9 9 7
33 31 30 28 28 27 27 27 28 28 26 25 27 27 26 25 25 26 24 24 18 12 13 7 6 1 7 1 3 8 6 3 5 2 3 2 7 12 13 11 5 6 3 2 4 7 4 4 0 2 1 2 2 3 5 6 4 6 1 5 4 5 2 2 3 2 2 3 4 2 2 6 3 5 5 2 5 6 7 9 9 9 8 8 8 8 9 9
34 33 31 29 28 28 27 28 27 28 30 27 25 24 23 26 26 24 21 16 10 8 7 5 5 6 10 2 10 11 5 6 7 7 5 1 5 13 15 9 2 8 5 3 0 8 3 4 4 7 5 6 5 5 10 14 7 3 2 4 2 0 3 4 4 3 6 1 5 3 5 10 11 7 4 3 0 5 8 9 9 9 8 8 8 9 10 10
35 34 32 31 30 29 29 27 27 28 31 34 31 29 26 27 20 14 12 13 15 9 9 10 13 18 13 21 5 9 8 7 8 12 5 7 4 5 3 4 11 12 7 4 3 9 3 2 4 6 14 14 13 10 6 3 5 5 7 5 3 5 3 3 6 2 9 6 6 6 8 11 13 11 6 4 0 4 7 5 5 5 6 7 8 9 9 11
36 35 33 32 31 29 29 28 30 29 30 23 23 20 13 12 10 7 7 14 14 18 3 21 18 3 10 18 9 4 9 13 11 1 6 3 11 6 5 7 6 6 8 9 5 7 4 9 14 16 13 13 9 8 7 6 4 3 3 5 7 7 4 3 3 1 1 2 7 8 10 9 7 7 10 4 3 3 6 8 8 7 7 8 8 10 11 10
37 35 34 33 32 31 30 30 30 33 33 20 18 21 17 18 17 11 15 16 17 12 8 17 20 7 2 4 11 19 13 1 5 8 10 5 11 15 6 9 9 8 7 7 11 2 7 9 11 8 7 10 8 6 6 8 3 2 3 3 7 5 7 3 1 1 1 4 3 1 4 9 10 10 10 1 1 8 11 10 9 10 8 8 9 11 11 13
38 36 34 34 33 32 32 32 29 31 34 19 18 13 12 19 3 16 23 14 3 5 8 6 11 8 4 5 10 13 12 7 7 12 5 12 10 13 4 8 12 12 6 4 4 4 11 16 8 5 6 6 6 7 8 9 7 4 4 5 4 7 2 4 1 1 1 2 7 1 4 10 12 12 5 4 8 8 8 11 11 11 10 10 10 11 10 7
38 36 36 34 33 33 33 34 34 29 19 19 20 8 12 2 7 12 9 11 12 6 6 10 14 14 3 1 3 10 13 14 16 12 12 8 14 10 12 10 11 9 5 7 14 10 8 10 8 8 7 9 7 7 8 7 5 6 3 2 6 4 6 5 2 1 1 2 1 0 1 9 7 6 10 10 9 11 7 9 11 9 12 13 14 12 11 12
37 37 36 35 34 33 34 33 37 29 18 23 22 15 5 5 13 15 16 6 7 3 1 8 19 13 6 9 5 11 15 7 10 13 5 8 13 4 10 14 15 10 14 14 13 11 5 2 5 9 8 11 10 8 8 7 7 4 5 3 3 2 7 6 5 2 1 0 2 1 5 8 5 7 8 8 8 8 6 6 8 10 11 10 5 5 10 14
38 37 36 35 34 34 33 35 26 24 26 23 15 10 9 8 14 14 18 7 4 2 4 3 3 4 5 2 2 10 7 4 6 11 9 11 7 6 8 4 7 13 14 13 9 8 8 8 10 9 8 10 11 11 10 7 7 4 5 9 7 7 9 0 3 6 1 3 1 1 2 5 4 5 10 10 5 5 6 7 10 12 11 8 9 12 8 8
37 37 36 35 35 35 37 21 16 20 31 21 14 16 12 12 12 6 12 5 4 4 5 7 5 10 3 4 4 5 15 10 8 12 13 12 9 9 4 7 6 17 14 13 9 4 8 3 10 13 10 8 8 8 7 9 7 5 6 7 4 6 5 8 6 5 1 4 2 1 8 6 5 4 5 4 2 9 6 5 12 11 11 9 12 12 9 10
37 37 37 35 35 36 23 12 13 20 24 13 16 17 15 13 8 5 9 2 6 5 9 3 10 1 7 3 7 9 13 9 3 9 11 8 14 3 15 10 2 1 5 4 1 9 6 6 9 11 12 12 9 10 6 10 7 6 2 5 6 7 8 8 9 5 2 0 1 4 3 3 6 9 5 2 3 8 8 10 12 11 9 11 11 11 10 11
37 38 37 36 36 35 16 12 18 22 17 18 19 21 16 13 1 4 3 7 6 12 8 5 5 1 3 4 6 9 2 15 10 8 8 2 2 1 6 14 13 13 8 8 17 2 10 7 10 10 7 10 13 9 4 9 7 4 4 10 9 10 8 6 6 4 1 3 3 2 0 0 5 8 5 1 4 6 8 9 8 9 11 12 12 11 11 11
37 38 37 37 36 36 14 16 19 21 16 22 17 22 15 10 3 8 5 6 2 5 3 12 3 4 4 11 9 2 2 9 9 9 2 2 1 3 7 8 6 11 4 7 11 1 2 9 13 12 9 11 3 6 8 11 7 2 6 5 6 7 6 5 4 5 0 2 5 4 2 3 7 7 6 2 1 7 9 10 9 8 7 7 8 8 8 6
37 36 37 38 32 24 10 12 15 11 22 22 21 19 18 8 9 9 8 8 4 3 8 3 8 9 11 17 11 5 10 4 3 6 8 6 5 1 1 5 7 8 5 3 3 6 1 4 2 5 11 7 9 3 4 10 4 7 8 8 5 6 3 3 6 3 3 3 7 7 4 3 4 5 7 5 7 9 8 6 8 7 5 7 8 8 7 8
37 37 36 39 23 15 16 13 9 18 19 19 22 23 17 7 11 9 10 4 7 3 6 12 10 11 15 18 14 4 6 3 7 15 11 3 4 0 6 6 4 7 3 2 3 2 1 1 2 2 2 3 3 4 3 1 5 12 3 5 8 3 5 4 3 4 3 6 5 1 3 2 7 4 6 9 5 3 5 6 7 8 7 6 5 5 6 6
36 37 38 29 15 16 23 15 18 18 21 25 25 19 14 11 4 13 8 4 11 9 13 12 7 12 17 16 12 14 10 4 10 16 17 14 12 12 14 13 13 12 11 13 13 2 1 4 2 2 3 7 5 6 2 2 1 4 7 9 10 2 3 3 0 3 5 7 1 0 2 1 8 9 9 6 8 9 7 8 8 6 6 5 4 4 4 5
36 36 40 24 17 12 17 20 21 20 25 26 20 14 13 12 14 10 7 11 4 17 10 17 18 20 19 18 11 7 2 10 9 15 15 9 10 7 5 5 9 6 12 9 6 5 4 2 2 3 2 3 7 12 4 6 2 6 11 8 8 4 4 5 2 1 4 6 5 1 1 4 3 8 15 19 20 12 6 8 8 6 7 7 6 4 4 3
36 36 28 16 13 8 15 19 18 24 27 21 19 12 5 13 10 12 15 10 10 10 20 16 17 13 19 15 11 12 7 4 12 9 13 10 10 12 8 7 10 6 6 4 11 10 7 3 9 7 4 2 2 4 10 7 4 6 3 9 7 7 5 4 3 5 6 6 1 3 2 7 5 7 1 9 11 7 4 6 6 6 5 4 4 4 4 4
36 32 21 16 10 15 22 21 25 26 21 20 15 14 15 9 11 16 9 9 9 10 15 15 17 17 12 7 4 9 3 5 11 14 10 12 14 12 16 15 12 8 5 13 4 2 16 5 3 2 0 2 7 1 3 8 5 3 3 5 6 9 5 6 6 5 4 2 0 1 6 5 7 3 9 6 6 7 4 4 2 5 4 2 3 5 5 4
32 18 16 10 14 15 19 18 24 24 21 19 16 10 13 15 13 10 12 14 15 18 18 16 16 16 14 9 3 13 3 5 8 8 10 13 13 15 12 7 12 12 15 15 8 10 4 5 1 6 2 1 4 2 3 5 10 5 4 5 4 2 8 6 3 0 3 3 6 2 5 6 8 10 12 5 2 6 1 4 3 4 4 2 5 5 5 5
17 17 13 14 16 19 20 19 19 18 17 17 16 15 14 7 2 18 13 22 19 25 25 24 14 16 14 11 8 11 3 5 10 8 8 7 7 9 10 6 7 7 11 9 1 1 11 2 2 3 2 1 0 1 0 3 3 8 5 9 2 2 5 4 4 1 1 4 6 2 6 4 1 6 4 5 5 8 4 6 6 5 2 5 7 6 6 6
14 13 13 13 19 20 23 24 23 15 14 14 15 14 7 4 3 10 7 17 15 19 17 17 10 18 19 18 15 17 10 14 13 11 10 13 5 13 15 12 8 13 12 5 10 4 8 3 1 1 0 6 2 1 1 1 0 6 7 6 8 5 6 1 5 2 3 2 3 2 2 4 6 7 3 3 5 9 8 6 4 6 6 8 8 8 6 5
9 13 11 17 17 21 21 27 23 18 14 13 15 11 3 1 4 10 19 16 18 21 20 14 16 10 17 18 17 18 18 16 16 12 12 10 11 10 18 10 6 5 9 7 7 3 1 8 2 1 2 1 1 3 11 5 2 1 2 1 1 3 2 5 7 4 5 6 1 6 1 6 7 7 10 8 7 7 7 4 7 10 9 8 7 6 6 5
11 9 6 16 18 19 22 24 18 17 14 19 14 6 13 7 6 13 18 26 13 16 9 19 18 18 17 16 19 17 14 12 17 13 11 4 9 4 17 12 9 9 10 4 3 4 3 2 7 1 2 2 4 3 10 11 10 1 2 5 1 0 2 5 1 4 5 5 5 3 3 6 8 8 8 12 10 10 8 8 7 8 8 8 6 5 4 4
7 5 6 15 20 19 21 18 17 17 14 8 8 7 13 3 7 11 19 20 13 3 12 16 16 18 19 14 12 12 8 8 13 12 7 3 15 6 9 16 9 12 5 4 7 5 4 1 10 3 3 6 5 2 1 6 7 9 11 12 13 10 5 8 9 2 2 3 4 4 10 6 10 4 11 12 13 9 5 6 7 7 7 5 4 4 5 6
11 10 9 17 22 24 19 16 8 12 8 13 14 5 5 7 10 17 14 11 12 5 2 11 16 15 18 17 20 18 14 12 11 10 5 7 8 1 5 10 12 13 13 11 10 1 6 3 9 6 6 7 1 1 1 1 0 2 3 7 7 3 2 4 9 6 2 2 4 4 2 10 8 6 10 12 8 6 5 6 8 5 4 4 6 5 5 5
11 11 10 21 23 25 19 16 16 11 6 6 1 1 5 6 11 14 17 11 11 2 5 8 12 11 8 10 9 10 12 6 13 14 4 4 5 3 7 14 15 15 10 1 6 5 8 5 6 2 1 3 4 2 0 0 0 2 4 0 3 9 6 6 1 5 8 2 1 1 3 7 4 2 6 5 5 5 3 5 5 3 4 4 4 5 6 5
11 15 11 10 22 21 20 16 14 12 11 4 2 4 3 4 11 13 15 17 10 10 10 8 10 13 14 9 14 18 17 7 6 6 2 3 5 2 10 15 22 12 15 11 15 10 5 2 9 5 3 2 6 4 3 1 1 4 2 3 2 3 4 2 4 1 2 7 6 6 16 2 4 4 0 0 0 1 2 4 6 6 5 4 4 4 4 4
11 8 11 11 10 11 14 6 18 20 17 16 12 12 6 5 11 16 18 17 5 11 10 9 12 13 8 13 14 12 18 10 6 5 3 5 4 0 8 15 22 15 9 6 8 8 3 5 9 8 11 13 11 12 17 17 11 1 0 1 3 6 5 4 2 2 4 5 8 5 13 1 2 2 1 1 1 3 4 3 2 2 4 6 5 4 4 4
12 12 4 7 8 10 2 5 2 10 13 15 13 8 11 9 6 8 18 6 1 7 5 6 4 13 7 13 13 11 15 4 11 6 8 6 4 1 5 14 18 11 10 14 13 11 3 4 6 9 14 17 18 8 4 13 5 9 13 14 12 9 8 4 4 4 14 7 9 18 8 4 1 2 2 7 6 8 8 5 4 5 4 3 2 3 4 4
6 13 15 11 5 7 7 2 5 13 15 13 12 7 14 14 9 5 5 7 5 10 3 10 8 13 9 17 12 12 13 6 1 10 12 14 2 3 4 9 8 10 17 12 17 8 5 4 11 9 11 5 3 2 6 13 15 18 12 10 8 9 8 9 10 18 6 10 14 9 9 4 5 6 10 9 6 4 4 4 5 3 2 2 2 1 3 3
9 5 11 10 17 18 10 9 11 16 11 11 3 1 14 18 15 12 0 1 8 12 13 1 15 16 21 22 18 14 11 8 8 12 5 2 5 1 8 1 7 5 12 6 11 9 8 10 5 5 4 3 1 9 13 12 11 8 9 7 7 9 8 15 19 13 9 14 18 5 9 8 6 8 10 8 8 9 6 5 5 3 2 4 5 4 4 4
2 4 1 2 7 8 20 25 22 19 17 14 2 8 12 17 17 13 7 6 9 9 13 12 17 21 24 19 16 11 16 10 8 7 11 8 12 8 5 3 1 2 6 8 6 1 7 4 5 7 4 2 1 6 8 13 6 7 12 14 14 11 16 20 22 14 12 13 7 5 4 7 5 8 8 8 3 1 1 1 2 4 4 4 5 5 6 7
5 13 6 4 3 14 15 14 7 11 13 11 6 9 14 19 19 7 2 11 10 11 6 18 18 20 21 21 20 18 21 21 21 15 4 13 8 5 9 6 6 2 1 7 6 1 6 4 7 5 4 4 1 3 1 6 9 8 7 11 15 19 21 23 19 12 7 11 12 4 7 14 6 10 6 4 1 1 2 2 7 5 4 6 6 7 8 9
2 3 1 12 11 7 12 12 14 16 13 8 8 7 9 15 15 11 3 1 18 12 9 20 20 18 16 19 15 18 21 16 16 22 20 21 16 9 10 3 6 12 6 6 3 0 3 1 1 5 7 4 2 5 3 3 2 8 10 11 16 19 20 16 11 5 6 16 15 11 12 17 1 7 3 1 2 4 5 7 6 5 6 7 9 9 8 10
2 1 3 7 6 10 18 14 12 12 12 10 6 10 10 19 13 11 9 4 3 4 10 13 14 15 8 16 18 18 14 10 15 12 15 12 8 5 3 14 17 15 5 7 2 6 5 7 6 5 7 6 1 7 7 5 4 2 10 22 23 16 13 9 9 9 18 18 12 11 22 2 4 4 6 1 5 7 9 7 6 3 4 9 11 12 13 11
Wind_Direction
225 225 218 217 214 209 202 199 191 189 188 188 189 191 191 191 191 188 183 181 170 174 173 172 165 161 150 144 136 135 108 96 110 102 171 223 164 138 126 123 111 99 83 64 38 29 348 348 0 351 343 344 260 47 258 19 185 68 141 116 245 199 168 214 173 187 220 144 216 190 212 124 134 195 161 70 37 76 68 64 342 23 23 287 297 142 144 151
229 223 222 216 219 210 208 199 196 188 188 189 189 190 191 191 190 190 187 180 170 170 172 171 169 163 153 146 137 133 88 79 118 168 201 176 148 154 141 127 123 114 93 68 68 46 41 359 355 352 332 329 318 150 84 266 91 125 126 122 226 189 235 167 228 236 139 208 174 180 185 162 177 135 196 101 163 122 75 15 24 53 23 58 103 129 141 153
232 226 222 220 215 218 210 207 204 191 187 188 189 190 190 190 189 190 188 182 170 167 167 168 165 161 154 144 146 141 93 28 237 231 234 205 161 158 146 130 125 136 128 133 124 116 122 120 351 334 312 289 328 209 57 268 148 232 123 233 239 218 253 224 213 227 261 150 143 163 206 146 181 136 162 139 166 147 147 143 357 99 128 125 126 136 148 159
232 231 225 221 216 215 212 204 206 199 187 188 189 190 190 189 187 188 186 182 174 166 162 160 157 155 149 148 143 150 78 42 248 180 208 167 176 155 144 133 123 111 106 101 127 119 173 76 54 37 313 306 297 12 220 254 124 267 115 196 226 224 341 253 342 274 252 194 160 165 128 138 198 192 130 149 113 231 230 204 159 180 162 157 155 151 156 164
228 228 225 226 220 218 217 208 204 203 192 187 188 189 190 186 185 184 182 180 175 170 161 156 155 149 148 146 153 113 80 347 245 216 190 169 174 161 154 139 133 131 112 123 102 86 79 77 84 71 267 290 348 346 244 257 197 108 209 198 214 316 256 269 314 303 146 10 135 135 136 197 111 53 128 155 164 203 202 207 211 162 163 156 161 166 162 169
224 227 227 225 223 216 215 213 202 202 196 188 187 189 187 186 182 181 178 177 173 171 165 156 151 151 145 144 140 117 128 223 240 217 180 171 177 170 159 145 126 118 116 101 100 111 73 37 81 55 30 283 215 183 264 218 179 236 297 253 239 212 250 293 327 330 118 132 155 154 195 116 154 189 183 176 186 232 207 186 178 164 168 169 158 157 168 173
223 223 222 221 223 217 213 214 207 203 196 189 187 187 185 184 181 177 174 173 170 167 163 157 150 145 145 132 95 155 184 230 346 239 153 170 174 170 159 135 119 115 115 111 118 109 124 103 94 173 193 205 271 264 295 298 248 212 249 100 324 179 218 318 302 356 138 164 183 226 124 142 153 169 172 190 242 233 228 186 164 166 144 139 152 173 173 179
218 218 216 219 221 217 211 213 210 201 198 193 190 185 183 181 179 175 171 169 165 162 158 155 152 151 142 128 127 167 204 224 235 142 204 177 171 165 147 130 130 132 134 147 149 138 128 113 151 87 339 268 216 169 261 314 169 211 268 247 244 122 254 308 308 30 106 132 314 132 140 187 166 176 119 227 229 237 237 128 134 141 148 161 163 175 181 184
220 215 214 216 222 215 211 212 215 206 192 190 185 185 180 178 177 173 170 165 162 160 158 155 160 157 148 139 157 169 216 230 144 177 154 167 157 150 135 144 152 148 155 146 160 154 135 182 131 139 192 235 23 326 295 228 292 198 222 215 8 216 310 310 334 6 76 58 117 122 200 325 260 315 192 218 220 230 94 131 145 147 155 168 178 178 179 186
221 215 210 213 217 212 212 209 210 210 200 183 183 181 179 176 174 171 169 164 162 160 159 161 160 161 147 132 126 206 231 155 123 127 152 144 141 143 161 146 154 157 138 178 148 158 152 173 137 111 162 32 218 233 309 264 245 201 204 204 201 219 164 39 244 297 314 119 205 147 214 224 335 60 246 240 214 127 108 139 155 155 169 178 179 183 187 185
222 216 212 211 212 211 211 208 206 204 202 188 177 178 177 174 170 170 167 163 161 160 159 163 167 158 167 161 168 211 315 136 140 132 134 144 146 157 173 159 167 163 163 172 173 180 174 143 120 134 40 209 24 319 350 262 307 244 177 85 48 344 75 27 86 276 330 172 138 131 127 308 310 62 231 217 187 153 137 153 165 171 174 181 182 185 190 195
221 215 212 210 209 206 206 208 206 204 196 188 180 175 176 172 169 167 166 161 159 157 159 163 172 170 159 185 192 202 303 152 153 146 140 148 165 180 170 170 173 172 168 166 189 192 169 133 132 151 156 351 111 295 302 282 334 264 168 167 297 13 287 227 168 230 105 253 149 152 76 314 307 228 231 240 138 158 148 162 173 184 183 181 184 185 189 203
219 215 208 208 205 202 200 205 207 206 207 184 177 172 174 169 166 163 164 159 157 156 157 163 171 192 153 194 218 177 261 142 141 141 146 145 122 133 156 155 180 174 181 165 172 198 138 142 132 136 155 97 100 211 297 332 279 353 334 139 28 27 312 253 192 20 115 255 81 258 210 259 238 238 263 144 144 122 131 166 188 190 187 190 185 190 200 202
216 214 207 203 202 195 198 197 204 202 194 188 171 167 166 165 164 162 162 161 156 154 153 162 161 158 187 209 20 274 82 97 118 135 144 144 133 147 113 143 146 155 162 337 168 144 134 131 145 141 112 119 226 336 346 324 18 207 249 27 200 134 254 286 181 170 159 181 118 83 205 269 262 256 232 189 170 159 180 189 189 192 194 193 195 195 200 205
213 210 207 201 199 195 194 197 200 201 189 177 170 162 162 162 161 158 160 157 156 154 153 151 143 121 189 256 293 242 104 87 139 166 153 144 132 96 158 152 168 172 183 131 144 129 109 98 111 149 214 126 316 287 283 263 318 227 143 245 333 157 276 292 359 165 164 292 54 114 253 243 264 272 252 230 191 182 189 193 196 194 195 197 198 202 205 209
211 207 204 200 197 192 192 195 196 198 191 171 164 158 160 156 157 162 160 159 154 148 141 146 184 119 135 207 222 126 126 154 200 161 192 152 152 171 164 150 117 95 152 158 111 139 155 150 183 155 96 16 306 232 297 354 258 278 193 274 223 153 238 349 213 182 166 137 358 166 216 313 295 284 302 221 185 196 193 196 200 204 202 198 201 204 210 213
209 204 200 198 195 189 188 192 194 190 190 172 158 157 157 159 159 159 157 152 147 144 149 144 116 320 167 286 80 168 192 177 115 93 124 223 164 130 123 132 151 163 132 56 137 135 178 169 192 98 107 171 158 179 205 256 261 238 46 185 208 175 207 258 296 268 182 143 209 214 221 235 246 293 300 336 184 188 204 204 205 207 206 207 204 206 208 211
205 201 198 195 194 188 186 189 188 190 174 166 156 154 157 155 152 149 148 140 115 102 89 32 111 101 275 170 188 203 127 121 149 149 124 91 128 145 145 155 125 150 130 97 358 165 194 184 179 188 159 213 217 197 196 209 195 170 145 179 248 8 203 206 164 234 129 252 191 210 237 262 272 275 298 281 222 191 218 212 207 206 211 214 212 210 213 212
200 197 194 193 192 188 185 185 181 182 173 163 155 152 152 150 148 152 149 136 127 132 160 184 160 193 216 192 104 96 156 148 107 132 155 116 152 130 78 64 135 138 163 156 219 168 177 90 151 173 196 198 210 209 188 210 155 180 165 179 173 173 217 208 235 273 173 174 216 192 215 238 245 262 276 289 342 209 244 267 273 248 226 222 216 217 214 214
195 193 191 190 189 187 183 180 176 175 162 160 153 144 152 173 154 172 138 153 167 165 177 172 182 83 78 115 181 163 110 130 125 216 118 152 123 125 112 134 137 156 152 177 176 196 154 180 189 198 193 193 201 200 185 237 179 177 191 177 203 194 234 255 255 263 142 99 226 213 227 241 262 252 253 239 331 284 262 253 244 243 231 224 226 223 222 219
190 189 187 187 185 184 181 178 177 168 161 156 157 151 171 157 149 150 151 180 178 134 83 170 179 160 71 258 136 132 121 42 141 159 171 155 144 138 175 140 151 165 197 174 161 171 163 200 215 196 183 189 194 179 186 223 182 175 196 207 225 191 215 233 231 2 343 163 273 265 258 261 255 260 251 276 220 253 235 237 244 241 234 233 226 232 227 227
186 184 183 184 183 182 179 173 175 168 158 159 162 174 165 166 183 166 147 162 130 81 57 159 185 278 337 128 166 143 131 112 150 165 187 150 173 152 220 150 167 175 168 140 103 161 193 210 189 180 167 171 187 184 198 207 213 207 189 208 225 244 250 283 244 302 320 136 258 1 222 255 251 254 273 219 229 238 221 215 225 223 234 233 228 229 235 246
182 181 180 180 180 179 179 174 170 168 155 161 166 200 174 163 126 111 85 91 153 158 70 126 178 227 320 14 230 137 141 162 171 184 178 165 166 179 155 153 174 162 158 181 180 177 202 225 188 188 171 181 202 197 200 212 208 197 205 135 215 213 156 263 276 125 6 125 266 105 285 278 282 271 259 239 223 240 227 217 232 221 227 230 225 213 214 226
180 177 177 178 177 178 174 177 166 159 172 163 163 167 136 159 127 132 106 117 130 187 112 169 177 208 208 168 222 169 157 175 138 179 178 163 167 148 151 168 161 164 188 188 191 189 206 114 175 186 191 190 202 209 203 192 218 220 187 183 205 164 220 173 215 107 352 49 86 71 354 301 266 268 278 257 232 249 263 229 239 244 238 242 273 261 222 218
176 175 174 173 174 172 172 167 176 169 157 164 162 124 135 154 143 141 105 96 41 347 64 4 1 244 206 287 263 169 159 107 182 163 166 167 145 129 187 158 144 194 188 185 176 185 225 206 170 179 193 200 200 210 210 161 203 233 222 190 203 202 189 23 129 113 40 299 309 170 337 295 286 264 243 269 358 262 235 221 244 237 240 239 242 238 233 240
173 172 173 171 170 170 161 172 183 164 159 163 150 141 144 164 167 177 97 85 124 157 110 215 135 226 135 238 173 177 149 177 160 164 165 183 167 153 114 179 182 190 185 176 184 199 191 229 169 187 184 204 209 210 210 167 191 183 250 187 201 175 159 139 139 96 132 179 283 63 180 264 325 299 256 288 304 264 283 243 246 237 235 227 231 234 228 227
171 172 171 168 167 160 162 192 156 152 152 153 153 132 142 169 183 222 110 332 170 162 154 133 166 289 160 213 175 141 171 187 67 145 167 179 170 212 157 180 130 76 157 144 56 233 172 191 182 184 182 190 199 213 221 166 160 221 244 143 128 117 138 170 154 147 192 250 350 49 124 201 291 282 266 301 295 273 284 267 257 251 236 231 232 230 227 228
171 171 170 166 168 170 176 140 166 164 154 137 144 135 156 174 182 37 94 147 206 125 178 155 203 143 174 153 190 175 275 129 127 194 184 171 124 132 175 176 179 170 173 161 200 330 157 182 179 182 186 187 207 204 170 170 160 219 193 153 158 165 174 148 138 126 158 112 257 317 277 251 258 266 304 299 294 300 276 263 260 247 235 232 233 231 231 231
170 170 169 165 168 178 167 159 162 165 145 143 135 137 148 159 79 161 169 163 132 97 105 135 206 152 153 156 197 193 101 158 157 165 119 159 317 142 179 194 148 153 170 197 199 212 291 183 189 173 168 207 192 193 190 168 187 262 123 71 71 71 70 112 101 100 21 102 247 232 190 200 278 273 319 333 276 269 261 263 263 252 248 247 245 246 239 240
169 169 167 165 165 172 159 158 164 132 133 137 140 132 132 133 141 185 175 208 118 158 175 131 182 169 167 168 184 175 154 170 79 119 162 168 200 51 76 138 126 135 182 21 128 214 206 327 292 150 196 186 178 204 169 190 187 128 126 96 52 47 52 43 67 99 70 258 249 230 232 164 281 259 221 205 222 216 246 282 276 284 277 258 243 238 228 218
168 166 166 164 172 163 141 161 141 137 131 133 128 129 128 174 189 164 174 175 85 142 117 165 170 160 171 166 176 178 155 118 136 146 162 180 187 126 135 72 48 90 60 99 187 311 22 23 140 243 67 51 107 111 16 113 154 139 116 133 98 5 18 27 346 37 176 261 262 256 205 164 197 286 275 235 257 228 201 229 267 285 274 271 275 249 230 216
165 165 163 166 156 165 162 150 151 139 135 133 132 136 150 159 256 192 155 131 140 187 157 143 175 164 170 179 171 172 161 128 160 163 166 182 173 171 182 173 163 163 187 183 202 83 138 188 254 1 228 138 132 103 351 86 111 97 118 135 147 210 46 221 5 229 218 208 247 244 152 344 248 235 252 280 252 251 213 219 233 253 264 259 260 254 219 200
162 163 162 159 148 178 146 145 144 143 136 137 130 150 164 171 183 150 107 165 195 154 182 160 167 172 174 167 179 150 49 158 179 172 167 178 164 203 214 168 187 158 186 180 112 124 259 287 328 274 10 232 155 166 180 144 254 137 151 153 137 135 154 191 254 275 319 283 269 261 277 272 250 283 247 246 255 239 222 231 238 232 222 218 223 231 239 242
159 159 163 153 149 149 132 138 136 140 137 137 135 158 195 179 182 140 145 181 149 160 151 164 157 165 168 176 170 154 157 200 169 171 166 161 173 181 221 246 182 147 92 161 159 182 153 246 236 161 201 177 184 196 166 148 119 201 128 154 174 137 149 192 181 190 211 205 296 268 104 232 137 240 238 236 258 292 272 244 242 235 236 266 285 287 282 278
156 157 150 146 121 147 147 141 145 144 134 137 146 168 177 180 150 158 158 146 139 141 151 151 153 152 173 170 140 172 118 161 177 154 179 170 188 187 188 196 206 158 130 144 250 115 198 182 282 301 61 136 175 256 145 116 132 199 171 74 133 205 129 160 199 162 173 160 110 208 209 192 186 256 291 246 260 279 278 270 233 231 238 248 260 247 239 246
153 156 149 143 143 156 143 142 144 144 139 142 149 182 191 177 163 161 176 149 147 151 152 150 157 164 168 165 146 182 234 149 197 162 181 194 193 192 196 191 187 181 168 178 161 177 115 201 318 316 126 144 172 165 194 166 180 211 111 203 215 137 98 101 56 115 103 51 250 167 314 291 301 315 281 294 282 269 299 265 275 249 230 228 232 235 244 248
157 144 153 155 144 156 143 143 144 140 143 149 156 175 192 211 254 158 155 165 158 143 150 156 184 163 169 171 161 180 179 103 172 154 198 176 216 212 192 225 173 189 196 132 173 230 155 189 350 79 182 358 145 153 100 39 152 107 183 212 184 117 113 132 178 346 77 178 256 102 214 288 43 257 312 333 267 259 240 238 230 242 253 241 238 236 234 239
147 146 128 151 154 155 145 142 141 146 146 160 178 186 188 180 159 123 108 128 137 150 147 159 160 165 169 163 181 180 173 165 184 173 186 180 237 197 194 192 187 187 185 200 151 228 127 90 299 305 161 273 345 98 52 336 38 165 190 189 142 221 240 287 102 185 173 241 265 293 259 261 183 234 325 284 231 247 242 227 232 245 238 234 238 243 255 265
124 138 148 155 157 152 145 142 145 147 163 176 186 178 188 167 184 143 148 144 143 155 157 173 148 199 166 177 170 179 173 185 172 194 161 205 209 187 193 181 195 174 178 173 150 156 51 141 286 309 145 271 13 101 193 199 344 63 77 124 87 100 148 144 205 168 135 237 124 287 50 234 203 217 209 249 225 227 238 216 217 225 220 219 227 228 229 227
141 139 136 151 149 145 139 139 143 159 172 187 181 196 173 169 158 150 152 148 159 155 179 160 170 159 183 182 167 169 192 193 174 190 191 189 192 313 192 184 164 180 186 178 110 180 140 108 158 259 300 100 178 203 208 163 156 195 124 194 206 17 237 109 57 136 182 176 185 193 282 265 250 215 197 225 237 231 198 209 222 227 222 218 215 206 213 206
133 110 106 152 143 138 129 129 153 174 188 201 177 175 179 161 145 149 156 155 147 188 159 165 168 174 168 163 182 176 160 162 179 190 189 172 188 180 212 185 148 168 126 128 126 188 104 152 154 152 79 213 251 255 192 174 189 179 176 190 187 143 152 168 233 49 117 142 219 151 247 263 267 193 202 217 231 238 211 198 223 235 226 216 210 212 189 190
136 136 151 156 138 135 132 138 174 186 185 174 174 184 172 135 143 152 151 158 149 132 30 163 173 170 169 176 172 172 166 183 182 182 206 162 194 119 202 147 150 152 161 180 172 234 138 111 105 158 210 176 215 354 213 175 74 212 161 220 174 186 104 181 193 229 49 251 122 164 208 258 239 196 205 216 226 232 220 193 224 234 234 225 219 207 203 191
144 125 136 149 144 138 141 169 175 172 166 200 338 6 147 151 150 154 150 164 160 133 126 162 172 149 187 165 159 161 170 173 174 191 157 157 190 205 177 155 143 160 141 87 82 186 84 101 75 340 22 308 315 307 163 121 58 307 271 126 139 197 179 163 150 180 172 177 199 277 257 257 278 234 231 248 270 272 274 200 214 224 213 213 189 180 179 179
118 126 133 157 154 152 157 168 162 179 172 162 182 160 303 144 149 157 157 169 158 161 159 152 162 181 163 171 158 175 170 157 213 154 151 175 182 217 167 154 158 167 171 195 174 196 138 259 120 123 47 355 336 345 339 337 177 207 193 195 172 98 77 143 104 57 161 218 176 140 243 228 265 337 321 358 54 155 200 216 184 187 216 199 187 175 171 161
113 99 118 143 167 167 175 184 174 168 173 173 174 164 156 145 173 165 157 164 131 155 147 173 169 154 165 161 169 170 178 176 145 223 106 153 167 88 188 166 171 176 186 141 133 132 86 173 137 143 160 174 190 199 204 203 193 206 175 117 162 176 136 141 170 186 189 247 172 202 243 219 298 34 63 263 236 209 247 228 276 259 196 184 192 180 173 157
148 123 128 99 161 185 218 49 104 162 166 172 172 184 147 135 158 175 150 152 114 123 126 113 99 138 141 154 157 164 178 212 160 182 153 170 154 260 197 182 176 179 161 138 141 137 124 154 186 178 179 192 203 197 45 101 99 190 206 182 190 194 190 137 112 124 215 199 187 227 209 119 204 124 204 230 212 198 212 235 226 228 245 240 196 172 166 163
140 137 151 145 117 217 171 140 163 172 184 182 172 179 160 152 145 140 171 144 197 137 98 142 148 146 164 152 165 170 171 152 74 145 174 160 179 169 7 177 172 173 151 139 154 104 110 149 213 192 205 211 132 161 186 146 181 206 177 190 187 178 176 168 174 217 132 94 239 224 99 131 222 200 211 211 221 256 273 250 245 256 251 202 183 133 108 116
142 191 163 160 157 170 181 210 192 182 183 187 188 156 161 149 158 155 25 335 146 148 134 180 165 164 165 169 157 164 170 164 155 170 155 144 104 206 112 9 163 173 153 153 173 154 161 194 195 134 206 222 169 149 162 160 187 175 170 172 170 185 162 198 219 215 147 199 230 112 160 201 221 224 217 214 194 208 214 228 225 200 153 141 135 137 150 164
69 78 146 5 10 182 184 174 171 176 176 183 142 157 160 158 166 161 148 146 149 175 156 160 179 168 170 162 159 162 165 147 192 172 166 173 159 144 115 88 319 40 169 148 192 194 156 213 166 167 176 226 161 172 171 162 171 154 174 178 188 165 200 210 223 211 198 229 238 79 236 227 198 239 228 238 212 173 239 175 147 180 194 142 127 153 175 186
149 155 165 31 6 130 98 104 122 165 186 183 152 194 165 166 162 139 113 150 160 179 174 162 174 172 168 165 166 169 181 184 170 169 202 142 161 166 163 172 138 19 67 157 158 294 156 227 136 121 121 217 114 114 143 161 143 179 203 188 186 194 207 215 219 216 224 273 271 309 310 278 213 211 229 284 29 124 60 210 212 200 132 153 163 181 192 199
95 3 63 137 124 116 117 144 159 177 179 200 174 189 161 169 161 153 103 212 168 167 174 171 161 162 166 167 175 182 183 179 164 169 166 154 172 206 145 257 153 146 150 148 140 57 104 176 38 108 151 245 153 138 134 83 149 170 190 202 206 204 212 219 218 190 183 229 236 246 261 252 154 195 172 160 119 151 200 232 239 208 181 163 176 192 199 208
46 337 85 95 72 145 149 155 166 160 204 200 169 180 175 173 159 139 123 35 55 133 153 134 148 139 170 170 183 185 180 168 177 163 169 162 122 98 97 153 151 151 148 168 132 134 137 128 142 143 161 233 259 133 131 114 96 294 234 210 203 204 210 212 218 201 209 215 219 220 237 169 186 158 128 183 193 207 225 224 231 226 188 188 186 195 204 207